Weather in Vigan

Philippines     17°34′26″N   120°23′06″E
temp.,
°C
wind,
m/s
gust,
m/s
humid.,
%
clouds,
%
prec.,
mm/h
press.,
hPa
HPBL,
m
19 september, sun
sun1923:00+25e11920 0.1 101120
02:00+24e22954 0.1 101028
05:00+24ene22935 0.0 101025
08:00+27ese1180100 0.0 1011219
11:00+31wsw21676 0.0 1010876
14:00+30wsw337532 0.0 1008859
17:00+28wsw2384100 1.6 1010214
20:00+25ne0190100 5.8 101216
20 september, mon
mon2023:00+24e1192100 0.0 101223
02:00+24ene2193100 0.0 101023
05:00+23e1193100 0.0 101022
08:00+26ene228317 0.0 1011236
11:00+30w2169100 0.0 1010901
14:00+29w3375100 0.0 1008784
17:00+28w1282100 0.4 1009411
20:00+25e1190100 2.2 101014
21 september, tue
tue2123:00+24ese1191100 0.3 101118
02:00+24e1193100 0.3 100918
05:00+23e2293100 0.0 100927
08:00+26e1183100 0.0 1010190
11:00+30wsw2169100 0.0 1009815
14:00+29w337325 0.0 1007797
17:00+28w2280100 0.2 1007510
20:00+26ne0186100 1.1 100943
22 september, wed
wed2223:00+25e11929 2.2 101019
02:00+24e11935 2.4 100922
05:00+23e22935 0.0 100924
08:00+27e118182 0.0 1011230
11:00+30w216833 0.0 1010905
14:00+30w337223 0.3 1009946
17:00+27wnw2284100 3.1 100991
20:00+25ne2292100 9.4 101235
23 september, thu
thu2323:00+24se2291100 0.8 101225
02:00+24e1192100 0.9 101123
05:00+23e2192100 0.0 101125
08:00+26ene128117 0.0 1012208
11:00+30wnw21675 0.0 1011869
14:00+30wnw337242 0.4 1010862
17:00+27nnw238492 5.3 101076
20:00+25ne12905 8.8 101234